Time,TemperatureF,DewpointF,PressureIn,WindDirection,WindDirectionDegrees,WindSpeedMPH,WindSpeedGustMPH,Humidity,HourlyPrecipIn,Conditions,Clouds,dailyrainin,SoftwareType,DateUTC
2013-09-16 00:00:00,62.1,58.8,30.04,SSE,148,0.0,0.0,89,0.00,,CLR,0.00,VWS V14.01,2013-09-16 04:00:00,
2013-09-16 00:01:00,62.0,59.0,30.04,SSE,148,0.0,0.0,90,0.00,,OVC085,0.00,VWS V14.01,2013-09-16 04:01:00,
2013-09-16 00:02:00,62.0,59.0,30.04,SSE,148,0.0,0.0,90,0.00,,OVC085,0.00,VWS V14.01,2013-09-16 04:02:00,
2013-09-16 00:07:00,62.1,59.5,30.04,SSE,148,0.0,0.0,91,0.00,,OVC085,0.00,VWS V14.01,2013-09-16 04:07:00,
2013-09-16 00:12:00,62.3,59.6,30.04,SSE,148,0.0,0.0,91,0.00,,OVC085,0.00,VWS V14.01,2013-09-16 04:12:00,
2013-09-16 00:15:00,62.0,58.7,30.04,SSE,148,0.0,0.0,89,0.00,,CLR,0.00,VWS V14.01,2013-09-16 04:15:00,
2013-09-16 00:17:00,62.4,59.7,30.05,North,0,4.0,5.0,91,0.00,,OVC085,0.00,VWS V14.01,2013-09-16 04:17:00,
2013-09-16 00:22:00,62.6,59.6,30.05,NNW,336,6.0,11.0,90,0.01,,OVC085,0.01,VWS V14.01,2013-09-16 04:22:00,
2013-09-16 00:27:00,62.4,59.4,30.05,NNE,17,5.0,10.0,90,0.02,,OVC085,0.02,VWS V14.01,2013-09-16 04:27:00,
2013-09-16 00:30:00,61.8,58.8,30.04,SSE,148,0.0,0.0,90,0.00,,CLR,0.00,VWS V14.01,2013-09-16 04:30:00,
2013-09-16 00:32:00,62.1,58.8,30.07,NE,38,5.0,7.0,89,0.03,,OVC085,0.03,VWS V14.01,2013-09-16 04:32:00,
2013-09-16 00:37:00,61.6,58.3,30.07,North,6,2.0,7.0,89,0.04,,OVC085,0.04,VWS V14.01,2013-09-16 04:37:00,
2013-09-16 00:42:00,61.2,57.9,30.07,NNW,337,5.0,7.0,89,0.04,,OVC085,0.04,VWS V14.01,2013-09-16 04:42:00,
2013-09-16 00:45:00,61.8,58.8,30.04,SSE,148,0.0,0.0,90,0.00,,CLR,0.00,VWS V14.01,2013-09-16 04:45:00,
2013-09-16 00:47:00,60.9,57.6,30.07,NNE,18,1.0,6.0,89,0.04,,OVC085,0.04,VWS V14.01,2013-09-16 04:47:00,
2013-09-16 00:52:00,60.5,57.2,30.07,NNW,344,0.0,6.0,89,0.04,,OVC085,0.04,VWS V14.01,2013-09-16 04:52:00,
2013-09-16 00:57:00,60.4,57.2,30.07,NNW,330,4.0,6.0,89,0.04,,OVC085,0.04,VWS V14.01,2013-09-16 04:57:00,
2013-09-16 01:00:00,62.0,59.0,30.04,SSE,148,0.0,0.0,90,0.00,,CLR,0.00,VWS V14.01,2013-09-16 05:00:00,
2013-09-16 01:02:00,60.2,57.0,30.07,NNW,343,0.0,6.0,89,0.04,,-RA,0.04,VWS V14.01,2013-09-16 05:02:00,
2013-09-16 01:07:00,60.1,56.8,30.07,NNW,340,4.0,5.0,89,0.04,,-RA,0.04,VWS V14.01,2013-09-16 05:07:00,
2013-09-16 01:12:00,60.1,56.8,30.07,NNW,344,2.0,5.0,89,0.04,,-RA,0.04,VWS V14.01,2013-09-16 05:12:00,
2013-09-16 01:15:00,62.3,59.6,30.05,SSE,148,0.0,0.0,91,0.00,,CLR,0.00,VWS V14.01,2013-09-16 05:15:00,
2013-09-16 01:17:00,59.9,56.7,30.08,North,0,0.0,5.0,89,0.04,,-RA,0.04,VWS V14.01,2013-09-16 05:17:00,
2013-09-16 01:22:00,59.9,56.7,30.08,NNW,346,3.0,5.0,89,0.04,,-RA,0.04,VWS V14.01,2013-09-16 05:22:00,
2013-09-16 01:27:00,59.9,56.7,30.08,North,359,0.0,7.0,89,0.04,,-RA,0.04,VWS V14.01,2013-09-16 05:27:00,
2013-09-16 01:30:00,62.3,59.0,30.07,NW,322,5.0,10.0,89,0.03,,CLR,0.03,VWS V14.01,2013-09-16 05:30:00,
2013-09-16 01:32:00,59.9,56.7,30.09,North,349,5.0,7.0,89,0.01,,-RA,0.04,VWS V14.01,2013-09-16 05:32:00,
2013-09-16 01:37:00,59.8,56.6,30.09,NNW,342,1.0,8.0,89,0.01,,-RA,0.04,VWS V14.01,2013-09-16 05:37:00,
2013-09-16 01:42:00,59.8,56.6,30.09,NNW,333,5.0,10.0,89,0.01,,-RA,0.04,VWS V14.01,2013-09-16 05:42:00,
2013-09-16 01:45:00,61.0,57.7,30.07,NNW,344,1.0,6.0,89,0.04,,CLR,0.04,VWS V14.01,2013-09-16 05:45:00,
2013-09-16 01:48:00,59.8,56.6,30.10,North,4,0.0,10.0,89,0.00,,-RA,0.04,VWS V14.01,2013-09-16 05:48:00,
2013-09-16 01:52:00,59.8,56.6,30.10,North,353,0.0,6.0,89,0.00,,-RA,0.04,VWS V14.01,2013-09-16 05:52:00,
2013-09-16 01:58:00,59.8,56.6,30.10,North,353,0.0,6.0,89,0.00,,-RA,0.04,VWS V14.01,2013-09-16 05:58:00,
2013-09-16 02:00:00,60.2,57.0,30.07,NNW,343,0.0,6.0,89,0.04,,CLR,0.04,VWS V14.01,2013-09-16 06:00:00,
2013-09-16 02:03:00,59.8,56.6,30.11,North,357,2.0,8.0,89,0.00,,OVC060,0.04,VWS V14.01,2013-09-16 06:03:00,
2013-09-16 02:07:00,59.6,56.4,30.11,NE,41,2.0,8.0,89,0.00,,OVC060,0.04,VWS V14.01,2013-09-16 06:07:00,
2013-09-16 02:12:00,59.5,56.6,30.11,NNW,335,2.0,6.0,90,0.00,,OVC060,0.04,VWS V14.01,2013-09-16 06:12:00,
2013-09-16 02:15:00,60.1,56.8,30.08,NNW,344,0.0,5.0,89,0.04,,CLR,0.04,VWS V14.01,2013-09-16 06:15:00,
2013-09-16 02:17:00,59.3,56.4,30.11,NNW,336,0.0,6.0,90,0.00,,OVC060,0.04,VWS V14.01,2013-09-16 06:17:00,
2013-09-16 02:22:00,59.2,56.3,30.11,NNW,330,0.0,6.0,90,0.00,,OVC060,0.04,VWS V14.01,2013-09-16 06:22:00,
2013-09-16 02:27:00,59.0,56.4,30.11,North,0,0.0,3.0,91,0.00,,OVC060,0.04,VWS V14.01,2013-09-16 06:27:00,
2013-09-16 02:30:00,59.9,56.7,30.09,North,356,0.0,7.0,89,0.04,,CLR,0.04,VWS V14.01,2013-09-16 06:30:00,
2013-09-16 02:32:00,59.0,56.4,30.11,NNW,343,0.0,4.0,91,0.01,,OVC060,0.05,VWS V14.01,2013-09-16 06:32:00,
2013-09-16 02:37:00,58.9,56.3,30.11,NNW,346,0.0,1.0,91,0.01,,OVC060,0.05,VWS V14.01,2013-09-16 06:37:00,
2013-09-16 02:42:00,58.7,56.4,30.11,North,0,0.0,3.0,92,0.01,,OVC060,0.05,VWS V14.01,2013-09-16 06:42:00,
2013-09-16 02:45:00,59.8,56.6,30.10,NNW,336,0.0,10.0,89,0.01,,CLR,0.04,VWS V14.01,2013-09-16 06:45:00,
2013-09-16 02:47:00,58.7,56.4,30.11,North,0,0.0,1.0,92,0.02,,OVC060,0.06,VWS V14.01,2013-09-16 06:47:00,
2013-09-16 02:52:00,58.6,56.3,30.11,NNE,14,0.0,0.0,92,0.02,,OVC060,0.06,VWS V14.01,2013-09-16 06:52:00,
2013-09-16 02:57:00,58.6,56.3,30.11,NNE,14,0.0,0.0,92,0.02,,OVC060,0.06,VWS V14.01,2013-09-16 06:57:00,
2013-09-16 03:00:00,59.8,56.6,30.11,NNW,342,7.0,8.0,89,0.00,,CLR,0.04,VWS V14.01,2013-09-16 07:00:00,
2013-09-16 03:02:00,58.6,56.3,30.10,NNE,16,0.0,0.0,92,0.02,,-RA,0.06,VWS V14.01,2013-09-16 07:02:00,
2013-09-16 03:07:00,58.4,56.4,30.10,NNE,16,0.0,0.0,93,0.02,,-RA,0.06,VWS V14.01,2013-09-16 07:07:00,
2013-09-16 03:12:00,58.4,56.4,30.10,NNE,14,0.0,0.0,93,0.02,,-RA,0.06,VWS V14.01,2013-09-16 07:12:00,
2013-09-16 03:15:00,59.5,56.6,30.11,NNW,335,0.0,6.0,90,0.00,,CLR,0.04,VWS V14.01,2013-09-16 07:15:00,
2013-09-16 03:17:00,58.4,56.4,30.10,NNE,16,0.0,0.0,93,0.02,,-RA,0.06,VWS V14.01,2013-09-16 07:17:00,
2013-09-16 03:22:00,58.3,56.3,30.10,NNE,16,0.0,0.0,93,0.02,,-RA,0.06,VWS V14.01,2013-09-16 07:22:00,
2013-09-16 03:27:00,58.3,56.3,30.10,NNE,14,0.0,0.0,93,0.02,,-RA,0.06,VWS V14.01,2013-09-16 07:27:00,
2013-09-16 03:30:00,59.0,56.4,30.11,NNW,343,0.0,4.0,91,0.00,,CLR,0.04,VWS V14.01,2013-09-16 07:30:00,
2013-09-16 03:32:00,58.3,56.3,30.10,NNE,14,0.0,0.0,93,0.02,,-RA,0.06,VWS V14.01,2013-09-16 07:32:00,
2013-09-16 03:37:00,58.3,56.3,30.10,NNE,14,0.0,0.0,93,0.02,,-RA,0.06,VWS V14.01,2013-09-16 07:37:00,
2013-09-16 03:42:00,58.3,56.3,30.10,NNE,14,0.0,0.0,93,0.03,,-RA,0.07,VWS V14.01,2013-09-16 07:42:00,
2013-09-16 03:45:00,58.7,56.4,30.11,North,0,0.0,3.0,92,0.01,,CLR,0.05,VWS V14.01,2013-09-16 07:45:00,
2013-09-16 03:47:00,58.4,56.4,30.10,NNE,16,0.0,0.0,93,0.02,,-RA,0.07,VWS V14.01,2013-09-16 07:47:00,
2013-09-16 03:52:00,58.4,56.4,30.10,NNE,16,0.0,0.0,93,0.02,,-RA,0.07,VWS V14.01,2013-09-16 07:52:00,
2013-09-16 03:57:00,58.4,56.7,30.10,NNE,16,0.0,0.0,94,0.02,,-RA,0.07,VWS V14.01,2013-09-16 07:57:00,
2013-09-16 04:00:00,58.6,56.3,30.10,NNE,14,0.0,0.0,92,0.02,,CLR,0.06,VWS V14.01,2013-09-16 08:00:00,
2013-09-16 04:02:00,58.3,56.6,30.10,NNE,14,0.0,0.0,94,0.01,,-RA,0.07,VWS V14.01,2013-09-16 08:02:00,
2013-09-16 04:07:00,58.3,56.6,30.10,NNE,16,0.0,0.0,94,0.01,,-RA,0.07,VWS V14.01,2013-09-16 08:07:00,
2013-09-16 04:12:00,58.3,56.6,30.10,NNE,16,0.0,0.0,94,0.01,,-RA,0.07,VWS V14.01,2013-09-16 08:12:00,
2013-09-16 04:15:00,58.4,56.4,30.10,NNE,14,0.0,0.0,93,0.02,,CLR,0.06,VWS V14.01,2013-09-16 08:15:00,
2013-09-16 04:17:00,58.3,56.6,30.10,NNE,16,0.0,0.0,94,0.02,,-RA,0.08,VWS V14.01,2013-09-16 08:17:00,
2013-09-16 04:22:00,58.3,56.6,30.10,NNE,16,0.0,0.0,94,0.02,,-RA,0.08,VWS V14.01,2013-09-16 08:22:00,
2013-09-16 04:27:00,58.3,56.6,30.10,NNE,16,0.0,0.0,94,0.02,,-RA,0.08,VWS V14.01,2013-09-16 08:27:00,
2013-09-16 04:30:00,58.3,56.3,30.10,NNE,14,0.0,0.0,93,0.02,,CLR,0.06,VWS V14.01,2013-09-16 08:30:00,
2013-09-16 04:32:00,58.3,56.6,30.10,NNE,14,0.0,0.0,94,0.02,,-RA,0.08,VWS V14.01,2013-09-16 08:32:00,
2013-09-16 04:37:00,58.3,56.6,30.10,NNE,16,0.0,0.0,94,0.02,,-RA,0.08,VWS V14.01,2013-09-16 08:37:00,
2013-09-16 04:42:00,58.3,56.6,30.10,NNE,14,0.0,0.0,94,0.02,,-RA,0.08,VWS V14.01,2013-09-16 08:42:00,
2013-09-16 04:45:00,58.4,56.4,30.10,NNE,14,0.0,0.0,93,0.03,,CLR,0.07,VWS V14.01,2013-09-16 08:45:00,
2013-09-16 04:47:00,58.3,56.6,30.10,NNE,16,0.0,0.0,94,0.02,,-RA,0.09,VWS V14.01,2013-09-16 08:47:00,
2013-09-16 04:53:00,58.3,56.6,30.10,NNE,16,0.0,0.0,94,0.02,,-RA,0.09,VWS V14.01,2013-09-16 08:53:00,
2013-09-16 04:57:00,58.3,56.6,30.10,NNE,16,0.0,0.0,94,0.02,,-RA,0.09,VWS V14.01,2013-09-16 08:57:00,
2013-09-16 05:00:00,58.4,56.7,30.10,NNE,14,0.0,0.0,94,0.02,,CLR,0.07,VWS V14.01,2013-09-16 09:00:00,
2013-09-16 05:03:00,58.3,56.6,30.10,NNE,16,0.0,0.0,94,0.02,,-RA,0.09,VWS V14.01,2013-09-16 09:03:00,
2013-09-16 05:08:00,58.1,56.7,30.10,NNE,16,0.0,0.0,95,0.02,,-RA,0.09,VWS V14.01,2013-09-16 09:08:00,
2013-09-16 05:13:00,58.1,56.7,30.10,NNE,16,0.0,0.0,95,0.02,,-RA,0.09,VWS V14.01,2013-09-16 09:13:00,
2013-09-16 05:15:00,58.3,56.6,30.10,NNE,16,0.0,0.0,94,0.02,,OVC023,0.08,VWS V15.00,2013-09-16 09:15:00,
2013-09-16 05:18:00,58.1,56.7,30.11,NNE,16,0.0,0.0,95,0.01,,-RA,0.09,VWS V14.01,2013-09-16 09:18:00,
2013-09-16 05:23:00,58.0,56.6,30.11,NNE,16,0.0,0.0,95,0.01,,-RA,0.09,VWS V14.01,2013-09-16 09:23:00,
2013-09-16 05:28:00,58.0,56.3,30.11,NNE,16,0.0,0.0,94,0.01,,-RA,0.09,VWS V14.01,2013-09-16 09:28:00,
2013-09-16 05:30:00,58.3,56.6,30.10,NNE,16,0.0,0.0,94,0.02,,CLR,0.08,VWS V14.01,2013-09-16 09:30:00,
2013-09-16 05:33:00,57.8,56.1,30.11,NNE,16,0.0,0.0,94,0.01,,-RA,0.09,VWS V14.01,2013-09-16 09:33:00,
2013-09-16 05:38:00,57.5,55.8,30.11,NNE,16,0.0,0.0,94,0.01,,-RA,0.09,VWS V14.01,2013-09-16 09:38:00,
2013-09-16 05:43:00,57.3,55.6,30.11,NNE,16,0.0,0.0,94,0.01,,-RA,0.09,VWS V14.01,2013-09-16 09:43:00,
2013-09-16 05:45:00,58.3,56.6,30.10,NNE,16,0.0,0.0,94,0.02,,CLR,0.08,VWS V14.01,2013-09-16 09:45:00,
2013-09-16 05:48:00,57.3,55.9,30.11,NNE,16,0.0,0.0,95,0.01,,-RA,0.09,VWS V14.01,2013-09-16 09:48:00,
2013-09-16 05:53:00,57.3,55.9,30.11,NNE,16,0.0,0.0,95,0.01,,-RA,0.09,VWS V14.01,2013-09-16 09:53:00,
2013-09-16 05:58:00,57.5,56.1,30.11,NNE,16,0.0,0.0,95,0.01,,-RA,0.09,VWS V14.01,2013-09-16 09:58:00,
2013-09-16 06:00:00,58.3,56.6,30.10,NNE,16,0.0,0.0,94,0.02,,CLR,0.09,VWS V14.01,2013-09-16 10:00:00,
2013-09-16 06:03:00,57.5,56.1,30.12,NNE,16,0.0,0.0,95,0.00,,,0.09,VWS V14.01,2013-09-16 10:03:00,
2013-09-16 06:08:00,57.6,56.2,30.12,NNE,14,0.0,0.0,95,0.00,,,0.09,VWS V14.01,2013-09-16 10:08:00,
2013-09-16 06:13:00,57.6,56.2,30.12,NNE,14,0.0,0.0,95,0.00,,,0.09,VWS V14.01,2013-09-16 10:13:00,
2013-09-16 06:15:00,58.1,56.7,30.11,NNE,16,0.0,0.0,95,0.02,,CLR,0.09,VWS V14.01,2013-09-16 10:15:00,
2013-09-16 06:18:00,57.8,56.4,30.12,NNE,14,0.0,0.0,95,0.00,,,0.09,VWS V14.01,2013-09-16 10:18:00,
2013-09-16 06:23:00,57.8,56.4,30.12,NNE,14,0.0,0.0,95,0.00,,,0.09,VWS V14.01,2013-09-16 10:23:00,
2013-09-16 06:27:00,57.8,56.4,30.12,NNE,14,0.0,0.0,95,0.00,,,0.09,VWS V14.01,2013-09-16 10:27:00,
2013-09-16 06:30:00,57.8,56.1,30.11,NNE,16,0.0,0.0,94,0.01,,CLR,0.09,VWS V14.01,2013-09-16 10:30:00,
2013-09-16 06:32:00,57.6,56.2,30.13,NNE,14,0.0,0.0,95,0.00,,,0.09,VWS V14.01,2013-09-16 10:32:00,
2013-09-16 06:37:00,57.5,56.1,30.13,NNE,14,0.0,0.0,95,0.00,,,0.09,VWS V14.01,2013-09-16 10:37:00,
2013-09-16 06:42:00,57.2,55.8,30.13,NNE,14,0.0,0.0,95,0.00,,,0.09,VWS V14.01,2013-09-16 10:42:00,
2013-09-16 06:45:00,57.3,55.9,30.11,NNE,16,0.0,0.0,95,0.01,,CLR,0.09,VWS V14.01,2013-09-16 10:45:00,
2013-09-16 06:47:00,57.0,55.6,30.13,NNE,14,0.0,0.0,95,0.00,,,0.09,VWS V14.01,2013-09-16 10:47:00,
2013-09-16 06:53:00,56.7,55.3,30.13,NNE,14,0.0,0.0,95,0.00,,,0.09,VWS V14.01,2013-09-16 10:53:00,
2013-09-16 06:58:00,56.6,55.2,30.13,NNE,14,0.0,0.0,95,0.00,,,0.09,VWS V14.01,2013-09-16 10:58:00,
2013-09-16 07:00:00,57.5,56.1,30.12,NNE,16,0.0,0.0,95,0.01,,CLR,0.09,VWS V14.01,2013-09-16 11:00:00,
2013-09-16 07:03:00,56.5,55.1,30.14,NNE,14,0.0,0.0,95,0.00,,,0.09,VWS V14.01,2013-09-16 11:03:00,
2013-09-16 07:08:00,56.3,54.9,30.14,NNE,14,0.0,0.0,95,0.00,,,0.09,VWS V14.01,2013-09-16 11:08:00,
2013-09-16 07:13:00,56.2,54.8,30.14,NNE,14,0.0,0.0,95,0.00,,,0.09,VWS V14.01,2013-09-16 11:13:00,
2013-09-16 07:15:00,57.6,56.2,30.12,NNE,14,0.0,0.0,95,0.00,,CLR,0.09,VWS V14.01,2013-09-16 11:15:00,
2013-09-16 07:18:00,55.9,54.5,30.15,NNE,14,0.0,0.0,95,0.00,,,0.09,VWS V14.01,2013-09-16 11:18:00,
2013-09-16 07:23:00,55.7,54.3,30.15,NNE,14,0.0,0.0,95,0.00,,,0.09,VWS V14.01,2013-09-16 11:23:00,
2013-09-16 07:28:00,55.6,54.2,30.15,NNE,14,0.0,0.0,95,0.00,,,0.09,VWS V14.01,2013-09-16 11:28:00,
2013-09-16 07:30:00,57.8,56.4,30.13,NNE,14,0.0,0.0,95,0.00,,CLR,0.09,VWS V14.01,2013-09-16 11:30:00,
2013-09-16 07:33:00,55.4,54.0,30.16,NNE,14,0.0,0.0,95,0.00,,,0.09,VWS V14.01,2013-09-16 11:33:00,
2013-09-16 07:38:00,55.6,54.2,30.16,North,359,2.0,2.0,95,0.00,,,0.09,VWS V14.01,2013-09-16 11:38:00,
2013-09-16 07:43:00,56.0,54.9,30.16,North,0,0.0,2.0,96,0.00,,,0.09,VWS V14.01,2013-09-16 11:43:00,
2013-09-16 07:45:00,57.0,55.6,30.13,NNE,14,0.0,0.0,95,0.00,,CLR,0.09,VWS V14.01,2013-09-16 11:45:00,
2013-09-16 07:48:00,56.3,55.2,30.17,North,357,0.0,2.0,96,0.00,,,0.09,VWS V14.01,2013-09-16 11:48:00,
2013-09-16 07:53:00,56.6,55.5,30.17,North,359,0.0,3.0,96,0.00,,,0.09,VWS V14.01,2013-09-16 11:53:00,
2013-09-16 07:57:00,56.7,55.6,30.17,North,359,0.0,3.0,96,0.00,,,0.09,VWS V14.01,2013-09-16 11:57:00,
2013-09-16 08:00:00,56.5,55.1,30.14,NNE,14,0.0,0.0,95,0.00,,CLR,0.09,VWS V14.01,2013-09-16 12:00:00,
2013-09-16 08:02:00,56.9,55.8,30.17,North,0,0.0,0.0,96,0.00,,,0.09,VWS V14.01,2013-09-16 12:02:00,
2013-09-16 08:07:00,57.0,55.9,30.17,North,357,0.0,0.0,96,0.00,,,0.09,VWS V14.01,2013-09-16 12:07:00,
2013-09-16 08:12:00,57.0,55.9,30.17,North,0,0.0,0.0,96,0.00,,,0.09,VWS V14.01,2013-09-16 12:12:00,
2013-09-16 08:15:00,56.0,54.6,30.15,NNE,14,0.0,0.0,95,0.00,,CLR,0.09,VWS V14.01,2013-09-16 12:15:00,
2013-09-16 08:17:00,57.0,55.9,30.17,North,359,0.0,3.0,96,0.00,,,0.09,VWS V14.01,2013-09-16 12:17:00,
2013-09-16 08:22:00,57.2,56.1,30.17,North,356,0.0,3.0,96,0.00,,,0.09,VWS V14.01,2013-09-16 12:22:00,
2013-09-16 08:27:00,57.2,56.1,30.17,North,357,0.0,0.0,96,0.00,,,0.09,VWS V14.01,2013-09-16 12:27:00,
2013-09-16 08:30:00,55.4,54.0,30.16,NNE,14,0.0,0.0,95,0.00,,CLR,0.09,VWS V14.01,2013-09-16 12:30:00,
2013-09-16 08:32:00,57.3,56.2,30.17,NNE,16,0.0,3.0,96,0.00,,,0.09,VWS V14.01,2013-09-16 12:32:00,
2013-09-16 08:37:00,57.3,56.2,30.17,NNE,13,0.0,3.0,96,0.00,,,0.09,VWS V14.01,2013-09-16 12:37:00,
2013-09-16 08:42:00,57.3,56.2,30.17,NNE,13,0.0,2.0,96,0.00,,,0.09,VWS V14.01,2013-09-16 12:42:00,
2013-09-16 08:45:00,56.2,55.1,30.17,North,357,0.0,2.0,96,0.00,,CLR,0.09,VWS V14.01,2013-09-16 12:45:00,
2013-09-16 08:47:00,57.2,56.1,30.17,NNE,14,0.0,2.0,96,0.00,,,0.09,VWS V14.01,2013-09-16 12:47:00,
2013-09-16 08:52:00,57.3,56.2,30.17,NNE,14,0.0,2.0,96,0.00,,,0.09,VWS V14.01,2013-09-16 12:52:00,
2013-09-16 08:57:00,57.3,56.2,30.17,NNE,14,0.0,2.0,96,0.00,,,0.09,VWS V14.01,2013-09-16 12:57:00,
2013-09-16 09:00:00,56.7,55.6,30.17,North,356,0.0,1.0,96,0.00,,CLR,0.09,VWS V14.01,2013-09-16 13:00:00,
2013-09-16 09:02:00,57.2,55.8,30.18,North,8,0.0,3.0,95,0.00,,,0.09,VWS V14.01,2013-09-16 13:02:00,
2013-09-16 09:07:00,57.2,56.1,30.18,North,8,0.0,3.0,96,0.00,,,0.09,VWS V14.01,2013-09-16 13:07:00,
2013-09-16 09:12:00,57.3,55.9,30.18,North,8,0.0,0.0,95,0.00,,,0.09,VWS V14.01,2013-09-16 13:12:00,
2013-09-16 09:15:00,57.0,55.9,30.17,North,357,3.0,3.0,96,0.00,,CLR,0.09,VWS V14.01,2013-09-16 13:15:00,
2013-09-16 09:17:00,57.3,56.2,30.19,North,8,0.0,0.0,96,0.00,,,0.09,VWS V14.01,2013-09-16 13:17:00,
2013-09-16 09:22:00,57.3,56.2,30.19,North,10,0.0,0.0,96,0.00,,,0.09,VWS V14.01,2013-09-16 13:22:00,
2013-09-16 09:27:00,57.5,56.1,30.19,North,10,0.0,0.0,95,0.00,,,0.09,VWS V14.01,2013-09-16 13:27:00,
2013-09-16 09:30:00,57.3,56.2,30.17,North,359,0.0,0.0,96,0.00,,CLR,0.09,VWS V14.01,2013-09-16 13:30:00,
2013-09-16 09:32:00,57.5,56.1,30.19,North,10,0.0,0.0,95,0.00,,,0.09,VWS V14.01,2013-09-16 13:32:00,
2013-09-16 09:37:00,57.8,56.7,30.19,North,10,0.0,0.0,96,0.00,,,0.09,VWS V14.01,2013-09-16 13:37:00,
2013-09-16 09:42:00,58.1,56.7,30.19,North,10,0.0,0.0,95,0.00,,,0.09,VWS V14.01,2013-09-16 13:42:00,
2013-09-16 09:45:00,57.3,56.2,30.17,NNE,13,0.0,2.0,96,0.00,,CLR,0.09,VWS V14.01,2013-09-16 13:45:00,
2013-09-16 09:47:00,58.1,56.7,30.20,North,10,0.0,0.0,95,0.00,,,0.09,VWS V14.01,2013-09-16 13:47:00,
2013-09-16 09:52:00,58.3,56.9,30.20,NNE,16,0.0,6.0,95,0.00,,,0.09,VWS V14.01,2013-09-16 13:52:00,
2013-09-16 09:57:00,58.4,57.0,30.20,NNE,24,0.0,6.0,95,0.00,,,0.09,VWS V14.01,2013-09-16 13:57:00,
2013-09-16 10:00:00,57.3,55.9,30.18,NNE,14,2.0,3.0,95,0.00,,CLR,0.09,VWS V14.01,2013-09-16 14:00:00,
2013-09-16 10:02:00,58.7,57.3,30.20,NNE,23,0.0,6.0,95,0.00,,,0.09,VWS V14.01,2013-09-16 14:02:00,
2013-09-16 10:07:00,58.9,57.5,30.20,NE,35,4.0,5.0,95,0.00,,,0.09,VWS V14.01,2013-09-16 14:07:00,
2013-09-16 10:12:00,59.3,57.9,30.20,NNE,16,1.0,5.0,95,0.00,,,0.09,VWS V14.01,2013-09-16 14:12:00,
2013-09-16 10:15:00,57.3,55.9,30.19,North,8,0.0,0.0,95,0.00,,CLR,0.09,VWS V14.01,2013-09-16 14:15:00,
2013-09-16 10:17:00,59.8,58.1,30.20,NNE,20,0.0,6.0,94,0.00,,,0.09,VWS V14.01,2013-09-16 14:17:00,
2013-09-16 10:23:00,60.1,58.1,30.20,NNE,17,0.0,6.0,93,0.00,,,0.09,VWS V14.01,2013-09-16 14:23:00,
2013-09-16 10:27:00,60.5,58.5,30.20,NNE,18,0.0,5.0,93,0.00,,,0.09,VWS V14.01,2013-09-16 14:27:00,
2013-09-16 10:30:00,57.5,56.1,30.19,North,10,0.0,0.0,95,0.00,,CLR,0.09,VWS V14.01,2013-09-16 14:30:00,
2013-09-16 10:33:00,60.7,58.4,30.21,North,8,0.0,5.0,92,0.00,,,0.09,VWS V14.01,2013-09-16 14:33:00,
2013-09-16 10:38:00,61.3,58.7,30.21,NNE,28,0.0,5.0,91,0.00,,,0.09,VWS V14.01,2013-09-16 14:38:00,
2013-09-16 10:43:00,62.0,58.7,30.21,North,3,0.0,6.0,89,0.00,,,0.09,VWS V14.01,2013-09-16 14:43:00,
2013-09-16 10:45:00,58.1,56.7,30.20,North,10,0.0,0.0,95,0.00,,CLR,0.09,VWS V14.01,2013-09-16 14:45:00,
2013-09-16 10:48:00,63.2,59.3,30.21,North,3,0.0,3.0,87,0.00,,,0.09,VWS V14.01,2013-09-16 14:48:00,
2013-09-16 10:53:00,64.2,58.9,30.21,North,0,5.0,5.0,83,0.00,,,0.09,VWS V14.01,2013-09-16 14:53:00,
2013-09-16 10:58:00,64.3,58.3,30.21,North,352,1.0,5.0,81,0.00,,,0.09,VWS V14.01,2013-09-16 14:58:00,
2013-09-16 11:00:00,58.4,57.0,30.20,NNE,24,0.0,6.0,95,0.00,,CLR,0.09,VWS V14.01,2013-09-16 15:00:00,
2013-09-16 11:03:00,64.3,58.3,30.21,North,350,0.0,5.0,81,0.00,,BKN055,0.09,VWS V14.01,2013-09-16 15:03:00,
2013-09-16 11:08:00,64.5,58.5,30.21,NE,35,0.0,6.0,81,0.00,,BKN055,0.09,VWS V14.01,2013-09-16 15:08:00,
2013-09-16 11:13:00,64.3,57.7,30.21,North,8,0.0,6.0,79,0.00,,BKN055,0.09,VWS V14.01,2013-09-16 15:13:00,
2013-09-16 11:15:00,59.5,58.1,30.20,NNE,16,0.0,5.0,95,0.00,,CLR,0.09,VWS V14.01,2013-09-16 15:15:00,
2013-09-16 11:17:00,64.5,57.8,30.22,North,8,0.0,3.0,79,0.00,,BKN055,0.09,VWS V14.01,2013-09-16 15:17:00,
2013-09-16 11:22:00,65.0,58.7,30.22,NE,51,6.0,6.0,80,0.00,,BKN055,0.09,VWS V14.01,2013-09-16 15:22:00,
2013-09-16 11:27:00,66.0,58.2,30.22,NNE,30,3.0,8.0,76,0.00,,BKN055,0.09,VWS V14.01,2013-09-16 15:27:00,
2013-09-16 11:30:00,60.5,58.5,30.21,North,8,0.0,5.0,93,0.00,,CLR,0.09,VWS V14.01,2013-09-16 15:30:00,
2013-09-16 11:32:00,66.6,58.4,30.22,North,8,4.0,8.0,75,0.00,,BKN055,0.09,VWS V14.01,2013-09-16 15:32:00,
2013-09-16 11:37:00,66.3,57.4,30.22,North,350,5.0,9.0,73,0.00,,BKN055,0.09,VWS V14.01,2013-09-16 15:37:00,
2013-09-16 11:42:00,65.5,57.4,30.22,North,0,4.0,9.0,75,0.00,,BKN055,0.09,VWS V14.01,2013-09-16 15:42:00,
2013-09-16 11:45:00,62.6,59.3,30.21,North,3,0.0,6.0,89,0.00,,CLR,0.09,VWS V14.01,2013-09-16 15:45:00,
2013-09-16 11:47:00,64.8,57.1,30.23,NNE,31,0.0,8.0,76,0.00,,BKN055,0.09,VWS V14.01,2013-09-16 15:47:00,
2013-09-16 11:52:00,64.7,57.7,30.23,North,0,0.0,8.0,78,0.00,,BKN055,0.09,VWS V14.01,2013-09-16 15:52:00,
2013-09-16 11:57:00,64.5,56.8,30.23,NNE,21,0.0,7.0,76,0.00,,BKN055,0.09,VWS V14.01,2013-09-16 15:57:00,
2013-09-16 12:00:00,64.3,58.0,30.21,North,350,3.0,5.0,80,0.00,,CLR,0.09,VWS V14.01,2013-09-16 16:00:00,
2013-09-16 12:02:00,64.5,57.1,30.23,NE,56,2.0,7.0,77,0.00,,OVC041,0.09,VWS V14.01,2013-09-16 16:02:00,
2013-09-16 12:07:00,64.7,57.0,30.23,North,6,6.0,6.0,76,0.00,,OVC041,0.09,VWS V14.01,2013-09-16 16:07:00,
2013-09-16 12:12:00,65.0,56.9,30.23,NNE,23,0.0,8.0,75,0.00,,OVC041,0.09,VWS V14.01,2013-09-16 16:12:00,
2013-09-16 12:15:00,64.3,57.7,30.22,North,8,0.0,6.0,79,0.00,,CLR,0.09,VWS V14.01,2013-09-16 16:15:00,
2013-09-16 12:17:00,65.5,57.4,30.24,North,8,6.0,6.0,75,0.00,,OVC041,0.09,VWS V14.01,2013-09-16 16:17:00,
2013-09-16 12:22:00,65.8,56.9,30.24,NNE,16,2.0,6.0,73,0.00,,OVC041,0.09,VWS V14.01,2013-09-16 16:22:00,
2013-09-16 12:27:00,66.0,57.5,30.24,North,350,2.0,9.0,74,0.00,,OVC041,0.09,VWS V14.01,2013-09-16 16:27:00,
2013-09-16 12:30:00,66.3,58.5,30.22,North,10,0.0,8.0,76,0.00,,CLR,0.09,VWS V14.01,2013-09-16 16:30:00,
2013-09-16 12:32:00,66.6,56.9,30.24,NNE,16,1.0,7.0,71,0.00,,OVC041,0.09,VWS V14.01,2013-09-16 16:32:00,
2013-09-16 12:37:00,67.3,57.2,30.24,NE,56,0.0,7.0,70,0.00,,OVC041,0.09,VWS V14.01,2013-09-16 16:37:00,
2013-09-16 12:42:00,67.6,57.5,30.24,NNE,23,0.0,7.0,70,0.00,,OVC041,0.09,VWS V14.01,2013-09-16 16:42:00,
2013-09-16 12:45:00,65.2,57.1,30.23,NNW,342,6.0,7.0,75,0.00,,CLR,0.09,VWS V14.01,2013-09-16 16:45:00,
2013-09-16 12:47:00,68.3,57.8,30.23,NNE,28,0.0,7.0,69,0.00,,OVC041,0.09,VWS V14.01,2013-09-16 16:47:00,
2013-09-16 12:52:00,68.6,57.2,30.23,NE,45,1.0,5.0,67,0.00,,OVC041,0.09,VWS V14.01,2013-09-16 16:52:00,
2013-09-16 12:57:00,68.3,56.9,30.23,North,359,0.0,7.0,67,0.00,,OVC041,0.09,VWS V14.01,2013-09-16 16:57:00,
2013-09-16 13:00:00,64.5,56.8,30.23,NNE,32,3.0,7.0,76,0.00,,CLR,0.09,VWS V14.01,2013-09-16 17:00:00,
2013-09-16 13:02:00,67.9,57.0,30.23,NNW,340,5.0,8.0,68,0.00,,OVC050,0.09,VWS V14.01,2013-09-16 17:02:00,
2013-09-16 13:07:00,67.6,57.1,30.23,NNE,23,6.0,8.0,69,0.00,,OVC050,0.09,VWS V14.01,2013-09-16 17:07:00,
2013-09-16 13:12:00,67.6,57.1,30.23,ENE,78,1.0,7.0,69,0.00,,OVC050,0.09,VWS V14.01,2013-09-16 17:12:00,
2013-09-16 13:15:00,65.2,56.7,30.24,NNE,28,3.0,8.0,74,0.00,,CLR,0.09,VWS V14.01,2013-09-16 17:15:00,
2013-09-16 13:17:00,68.1,56.7,30.24,NNE,17,0.0,6.0,67,0.00,,OVC050,0.09,VWS V14.01,2013-09-16 17:17:00,
2013-09-16 13:22:00,68.4,57.4,30.24,NNE,21,3.0,6.0,68,0.00,,OVC050,0.09,VWS V14.01,2013-09-16 17:22:00,
2013-09-16 13:27:00,68.4,57.4,30.24,East,100,3.0,6.0,68,0.00,,OVC050,0.09,VWS V14.01,2013-09-16 17:27:00,
2013-09-16 13:30:00,66.3,57.4,30.24,NE,55,6.0,9.0,73,0.00,,CLR,0.09,VWS V14.01,2013-09-16 17:30:00,
2013-09-16 13:32:00,68.9,57.1,30.23,North,359,1.0,6.0,66,0.00,,OVC050,0.09,VWS V14.01,2013-09-16 17:32:00,
2013-09-16 13:37:00,69.3,57.0,30.23,North,11,4.0,7.0,65,0.00,,OVC050,0.09,VWS V14.01,2013-09-16 17:37:00,
2013-09-16 13:42:00,69.4,57.6,30.23,ENE,64,0.0,7.0,66,0.00,,OVC050,0.09,VWS V14.01,2013-09-16 17:42:00,
2013-09-16 13:45:00,67.9,57.0,30.23,East,88,0.0,7.0,68,0.00,,CLR,0.09,VWS V14.01,2013-09-16 17:45:00,
2013-09-16 13:47:00,69.9,57.6,30.23,NNW,337,5.0,13.0,65,0.00,,OVC050,0.09,VWS V14.01,2013-09-16 17:47:00,
2013-09-16 13:52:00,70.4,57.2,30.23,NNE,14,0.0,13.0,63,0.00,,OVC050,0.09,VWS V14.01,2013-09-16 17:52:00,
2013-09-16 13:57:00,70.9,58.1,30.23,North,354,1.0,6.0,64,0.00,,OVC050,0.09,VWS V14.01,2013-09-16 17:57:00,
2013-09-16 14:00:00,68.1,57.2,30.23,North,0,0.0,7.0,68,0.00,,CLR,0.09,VWS V14.01,2013-09-16 18:00:00,
2013-09-16 14:02:00,71.3,56.2,30.23,NNW,339,5.0,7.0,59,0.00,,OVC050,0.09,VWS V14.01,2013-09-16 18:02:00,
2013-09-16 14:07:00,70.9,56.8,30.23,NNE,31,0.0,7.0,61,0.00,,OVC050,0.09,VWS V14.01,2013-09-16 18:07:00,
2013-09-16 14:12:00,70.6,56.5,30.23,NNE,14,0.0,7.0,61,0.00,,OVC050,0.09,VWS V14.01,2013-09-16 18:12:00,
2013-09-16 14:15:00,67.9,58.2,30.24,NNE,28,0.0,7.0,71,0.00,,CLR,0.09,VWS V14.01,2013-09-16 18:15:00,
2013-09-16 14:17:00,70.1,56.5,30.23,North,6,0.0,7.0,62,0.00,,OVC050,0.09,VWS V14.01,2013-09-16 18:17:00,
2013-09-16 14:22:00,69.9,55.8,30.23,NE,42,0.0,7.0,61,0.00,,OVC050,0.09,VWS V14.01,2013-09-16 18:22:00,
2013-09-16 14:27:00,70.8,56.2,30.23,NNW,339,0.0,10.0,60,0.00,,OVC050,0.09,VWS V14.01,2013-09-16 18:27:00,
2013-09-16 14:30:00,68.6,57.6,30.23,NNE,14,0.0,6.0,68,0.00,,CLR,0.09,VWS V14.01,2013-09-16 18:30:00,
2013-09-16 14:32:00,71.1,56.5,30.23,NNE,31,0.0,9.0,60,0.00,,OVC050,0.09,VWS V14.01,2013-09-16 18:32:00,
2013-09-16 14:37:00,70.9,55.4,30.23,NNE,25,0.0,9.0,58,0.00,,OVC050,0.09,VWS V14.01,2013-09-16 18:37:00,
2013-09-16 14:42:00,70.6,56.1,30.23,NNE,23,5.0,8.0,60,0.00,,OVC050,0.09,VWS V14.01,2013-09-16 18:42:00,
2013-09-16 14:45:00,69.6,56.9,30.23,North,353,2.0,7.0,64,0.00,,CLR,0.09,VWS V14.01,2013-09-16 18:45:00,
2013-09-16 14:47:00,70.3,56.7,30.23,North,0,3.0,8.0,62,0.00,,OVC050,0.09,VWS V14.01,2013-09-16 18:47:00,
2013-09-16 14:52:00,69.6,56.5,30.23,North,1,3.0,7.0,63,0.00,,OVC050,0.09,VWS V14.01,2013-09-16 18:52:00,
2013-09-16 14:57:00,69.3,56.2,30.23,NNE,14,0.0,6.0,63,0.00,,OVC050,0.09,VWS V14.01,2013-09-16 18:57:00,
2013-09-16 15:00:00,71.1,56.5,30.23,North,1,1.0,7.0,60,0.00,,CLR,0.09,VWS V14.01,2013-09-16 19:00:00,
2013-09-16 15:02:00,69.3,56.2,30.23,NNE,31,0.0,6.0,63,0.00,,OVC050,0.09,VWS V14.01,2013-09-16 19:02:00,
2013-09-16 15:07:00,69.8,56.7,30.23,NNE,14,0.0,6.0,63,0.00,,OVC050,0.09,VWS V14.01,2013-09-16 19:07:00,
2013-09-16 15:12:00,70.6,55.6,30.23,North,357,0.0,5.0,59,0.00,,OVC050,0.09,VWS V14.01,2013-09-16 19:12:00,
2013-09-16 15:15:00,70.4,56.3,30.23,ENE,62,1.0,7.0,61,0.00,,CLR,0.09,VWS V14.01,2013-09-16 19:15:00,
2013-09-16 15:17:00,70.8,56.7,30.22,NNW,346,2.0,8.0,61,0.00,,OVC050,0.09,VWS V14.01,2013-09-16 19:17:00,
2013-09-16 15:22:00,70.1,56.5,30.22,NNE,13,0.0,8.0,62,0.00,,OVC050,0.09,VWS V14.01,2013-09-16 19:22:00,
2013-09-16 15:27:00,69.4,56.3,30.22,NNE,23,0.0,6.0,63,0.00,,OVC050,0.09,VWS V14.01,2013-09-16 19:27:00,
2013-09-16 15:30:00,70.9,56.3,30.23,NNE,18,0.0,10.0,60,0.00,,CLR,0.09,VWS V14.01,2013-09-16 19:30:00,
2013-09-16 15:32:00,68.9,56.7,30.22,NNE,17,0.0,6.0,65,0.00,,OVC050,0.09,VWS V14.01,2013-09-16 19:32:00,
2013-09-16 15:37:00,68.4,54.9,30.22,NNE,17,0.0,3.0,62,0.00,,OVC050,0.09,VWS V14.01,2013-09-16 19:37:00,
2013-09-16 15:42:00,68.6,56.0,30.22,North,0,0.0,3.0,64,0.00,,OVC050,0.09,VWS V14.01,2013-09-16 19:42:00,
2013-09-16 15:45:00,70.4,56.3,30.23,North,354,0.0,8.0,61,0.00,,CLR,0.09,VWS V14.01,2013-09-16 19:45:00,
2013-09-16 15:47:00,69.4,56.3,30.22,East,93,5.0,5.0,63,0.00,,OVC050,0.09,VWS V14.01,2013-09-16 19:47:00,
2013-09-16 15:52:00,70.4,55.9,30.22,NNE,30,0.0,6.0,60,0.00,,OVC050,0.09,VWS V14.01,2013-09-16 19:52:00,
2013-09-16 15:57:00,71.6,54.6,30.22,North,0,0.0,5.0,55,0.00,,OVC050,0.09,VWS V14.01,2013-09-16 19:57:00,
2013-09-16 16:00:00,69.3,56.6,30.23,North,357,0.0,6.0,64,0.00,,CLR,0.09,VWS V14.01,2013-09-16 20:00:00,
2013-09-16 16:02:00,71.8,55.8,30.21,NNE,25,0.0,5.0,57,0.00,,BKN055,0.09,VWS V14.01,2013-09-16 20:02:00,
2013-09-16 16:07:00,71.5,56.0,30.21,NNE,13,0.0,5.0,58,0.00,,BKN055,0.09,VWS V14.01,2013-09-16 20:07:00,
2013-09-16 16:12:00,71.1,54.6,30.21,NNE,23,3.0,6.0,56,0.00,,BKN055,0.09,VWS V14.01,2013-09-16 20:12:00,
2013-09-16 16:15:00,70.6,55.1,30.22,NNW,344,3.0,8.0,58,0.00,,CLR,0.09,VWS V14.01,2013-09-16 20:15:00,
2013-09-16 16:17:00,70.9,52.9,30.21,North,0,0.0,6.0,53,0.00,,BKN055,0.09,VWS V14.01,2013-09-16 20:17:00,
2013-09-16 16:22:00,70.4,54.0,30.21,NNE,14,0.0,6.0,56,0.00,,BKN055,0.09,VWS V14.01,2013-09-16 20:22:00,
2013-09-16 16:27:00,70.3,52.9,30.21,NNW,343,0.0,3.0,54,0.00,,BKN055,0.09,VWS V14.01,2013-09-16 20:27:00,
2013-09-16 16:30:00,69.1,56.0,30.22,ENE,71,0.0,6.0,63,0.00,,CLR,0.09,VWS V14.01,2013-09-16 20:30:00,
2013-09-16 16:32:00,70.6,55.1,30.21,NNW,343,0.0,3.0,58,0.00,,BKN055,0.09,VWS V14.01,2013-09-16 20:32:00,
2013-09-16 16:37:00,71.1,52.6,30.21,NE,51,0.0,3.0,52,0.00,,BKN055,0.09,VWS V14.01,2013-09-16 20:37:00,
2013-09-16 16:42:00,71.8,52.7,30.21,NNW,335,0.0,7.0,51,0.00,,BKN055,0.09,VWS V14.01,2013-09-16 20:42:00,
2013-09-16 16:45:00,68.9,56.2,30.22,North,349,0.0,3.0,64,0.00,,CLR,0.09,VWS V14.01,2013-09-16 20:45:00,
2013-09-16 16:47:00,71.8,53.2,30.21,NNW,337,4.0,7.0,52,0.00,,BKN055,0.09,VWS V14.01,2013-09-16 20:47:00,
2013-09-16 16:52:00,72.1,53.5,30.21,NNW,337,0.0,4.0,52,0.00,,BKN055,0.09,VWS V14.01,2013-09-16 20:52:00,
2013-09-16 16:57:00,72.3,52.6,30.21,NNW,347,3.0,6.0,50,0.00,,BKN055,0.09,VWS V14.01,2013-09-16 20:57:00,
2013-09-16 17:00:00,71.8,55.8,30.21,NNW,347,0.0,5.0,57,0.00,,CLR,0.09,VWS V14.01,2013-09-16 21:00:00,
2013-09-16 17:02:00,72.3,54.7,30.21,North,8,0.0,6.0,54,0.00,,FEW047,0.09,VWS V14.01,2013-09-16 21:02:00,
2013-09-16 17:07:00,72.5,53.4,30.21,NNW,340,0.0,3.0,51,0.00,,FEW047,0.09,VWS V14.01,2013-09-16 21:07:00,
2013-09-16 17:12:00,72.3,53.7,30.21,NNE,17,0.0,3.0,52,0.00,,FEW047,0.09,VWS V14.01,2013-09-16 21:12:00,
2013-09-16 17:15:00,71.1,54.1,30.21,NNE,31,4.0,6.0,55,0.00,,CLR,0.09,VWS V14.01,2013-09-16 21:15:00,
2013-09-16 17:17:00,71.6,53.6,30.21,NNW,347,0.0,5.0,53,0.00,,FEW047,0.09,VWS V14.01,2013-09-16 21:17:00,
2013-09-16 17:22:00,70.8,53.8,30.21,NNW,346,0.0,5.0,55,0.00,,FEW047,0.09,VWS V14.01,2013-09-16 21:22:00,
2013-09-16 17:27:00,69.9,54.0,30.21,NNW,344,0.0,3.0,57,0.00,,FEW047,0.09,VWS V14.01,2013-09-16 21:27:00,
2013-09-16 17:30:00,70.3,53.4,30.21,NNW,343,0.0,3.0,55,0.00,,CLR,0.09,VWS V14.01,2013-09-16 21:30:00,
2013-09-16 17:32:00,69.9,54.5,30.21,NNW,346,0.0,3.0,58,0.00,,FEW047,0.09,VWS V14.01,2013-09-16 21:32:00,
2013-09-16 17:37:00,69.9,53.5,30.21,NNW,344,0.0,5.0,56,0.00,,FEW047,0.09,VWS V14.01,2013-09-16 21:37:00,
2013-09-16 17:42:00,70.4,53.5,30.21,NNW,346,0.0,3.0,55,0.00,,FEW047,0.09,VWS V14.01,2013-09-16 21:42:00,
2013-09-16 17:45:00,71.8,53.2,30.21,NNW,337,0.0,7.0,52,0.00,,CLR,0.09,VWS V14.01,2013-09-16 21:45:00,
2013-09-16 17:47:00,70.9,52.9,30.21,North,10,0.0,3.0,53,0.00,,FEW047,0.09,VWS V14.01,2013-09-16 21:47:00,
2013-09-16 17:52:00,70.9,52.4,30.21,North,0,0.0,3.0,52,0.00,,FEW047,0.09,VWS V14.01,2013-09-16 21:52:00,
2013-09-16 17:57:00,70.8,52.3,30.21,North,0,0.0,4.0,52,0.00,,FEW047,0.09,VWS V14.01,2013-09-16 21:57:00,
2013-09-16 18:00:00,72.1,53.0,30.21,North,8,0.0,6.0,51,0.00,,CLR,0.09,VWS V14.01,2013-09-16 22:00:00,
2013-09-16 18:02:00,70.8,53.8,30.21,North,0,0.0,1.0,55,0.00,,CLR,0.09,VWS V14.01,2013-09-16 22:02:00,
2013-09-16 18:07:00,70.4,52.0,30.21,North,0,0.0,2.0,52,0.00,,CLR,0.09,VWS V14.01,2013-09-16 22:07:00,
2013-09-16 18:12:00,70.1,53.2,30.21,NNW,340,0.0,6.0,55,0.00,,CLR,0.09,VWS V14.01,2013-09-16 22:12:00,
2013-09-16 18:15:00,72.0,53.4,30.21,North,354,0.0,3.0,52,0.00,,CLR,0.09,VWS V14.01,2013-09-16 22:15:00,
2013-09-16 18:17:00,69.8,52.9,30.21,North,11,0.0,6.0,55,0.00,,CLR,0.09,VWS V14.01,2013-09-16 22:17:00,
2013-09-16 18:22:00,69.3,53.4,30.21,North,3,0.0,2.0,57,0.00,,CLR,0.09,VWS V14.01,2013-09-16 22:22:00,
2013-09-16 18:27:00,68.9,53.1,30.21,North,0,0.0,3.0,57,0.00,,CLR,0.09,VWS V14.01,2013-09-16 22:27:00,
2013-09-16 18:30:00,69.9,54.5,30.21,NNW,346,0.0,3.0,58,0.00,,CLR,0.09,VWS V14.01,2013-09-16 22:30:00,
2013-09-16 18:32:00,68.4,53.1,30.21,North,354,0.0,3.0,58,0.00,,CLR,0.09,VWS V14.01,2013-09-16 22:32:00,
2013-09-16 18:37:00,68.1,52.8,30.21,North,354,0.0,2.0,58,0.00,,CLR,0.09,VWS V14.01,2013-09-16 22:37:00,
2013-09-16 18:42:00,67.6,52.8,30.21,North,354,0.0,2.0,59,0.00,,CLR,0.09,VWS V14.01,2013-09-16 22:42:00,
2013-09-16 18:45:00,70.8,53.3,30.21,NNW,347,0.0,3.0,54,0.00,,CLR,0.09,VWS V14.01,2013-09-16 22:45:00,
2013-09-16 18:47:00,67.3,53.0,30.22,North,354,0.0,0.0,60,0.00,,CLR,0.09,VWS V14.01,2013-09-16 22:47:00,
2013-09-16 18:52:00,66.9,52.6,30.22,North,354,0.0,0.0,60,0.00,,CLR,0.09,VWS V14.01,2013-09-16 22:52:00,
2013-09-16 18:57:00,66.6,52.8,30.22,North,354,0.0,0.0,61,0.00,,CLR,0.09,VWS V14.01,2013-09-16 22:57:00,
2013-09-16 19:00:00,70.8,53.8,30.21,North,0,0.0,4.0,55,0.00,,CLR,0.09,VWS V14.01,2013-09-16 23:00:00,
2013-09-16 19:02:00,66.3,54.2,30.22,North,354,0.0,0.0,65,0.00,,FEW050,0.09,VWS V14.01,2013-09-16 23:02:00,
2013-09-16 19:07:00,65.8,53.3,30.22,North,354,0.0,0.0,64,0.00,,FEW050,0.09,VWS V14.01,2013-09-16 23:07:00,
2013-09-16 19:12:00,65.5,52.6,30.22,North,354,0.0,0.0,63,0.00,,FEW050,0.09,VWS V14.01,2013-09-16 23:12:00,
2013-09-16 19:15:00,69.9,53.5,30.21,North,359,0.0,6.0,56,0.00,,CLR,0.09,VWS V14.01,2013-09-16 23:15:00,
2013-09-16 19:17:00,65.3,52.8,30.22,North,354,0.0,0.0,64,0.00,,FEW050,0.09,VWS V14.01,2013-09-16 23:17:00,
2013-09-16 19:22:00,65.2,52.3,30.22,North,354,8.0,8.0,63,0.00,,FEW050,0.09,VWS V14.01,2013-09-16 23:22:00,
2013-09-16 19:27:00,65.2,52.3,30.22,North,349,0.0,8.0,63,0.00,,FEW050,0.09,VWS V14.01,2013-09-16 23:27:00,
2013-09-16 19:30:00,68.8,53.4,30.21,North,354,0.0,3.0,58,0.00,,CLR,0.09,VWS V14.01,2013-09-16 23:30:00,
2013-09-16 19:32:00,65.2,52.7,30.22,North,349,0.0,4.0,64,0.00,,FEW050,0.09,VWS V14.01,2013-09-16 23:32:00,
2013-09-16 19:37:00,65.0,53.0,30.22,North,349,0.0,0.0,65,0.00,,FEW050,0.09,VWS V14.01,2013-09-16 23:37:00,
2013-09-16 19:42:00,64.7,53.1,30.22,North,349,0.0,0.0,66,0.00,,FEW050,0.09,VWS V14.01,2013-09-16 23:42:00,
2013-09-16 19:45:00,67.4,52.6,30.22,North,354,0.0,0.0,59,0.00,,CLR,0.09,VWS V14.01,2013-09-16 23:45:00,
2013-09-16 19:47:00,64.3,52.7,30.22,North,349,0.0,0.0,66,0.00,,FEW050,0.09,VWS V14.01,2013-09-16 23:47:00,
2013-09-16 19:52:00,63.9,52.7,30.22,North,349,0.0,0.0,67,0.00,,FEW050,0.09,VWS V14.01,2013-09-16 23:52:00,
2013-09-16 19:57:00,63.4,53.5,30.22,North,349,0.0,0.0,70,0.00,,FEW050,0.09,VWS V14.01,2013-09-16 23:57:00,
2013-09-16 20:00:00,66.4,53.4,30.22,North,354,0.0,0.0,63,0.00,,CLR,0.09,VWS V14.01,2013-09-17 00:00:00,
2013-09-16 20:02:00,62.7,52.8,30.23,North,349,0.0,0.0,70,0.00,,CLR,0.09,VWS V14.01,2013-09-17 00:02:00,
2013-09-16 20:07:00,62.3,52.8,30.23,North,349,0.0,0.0,71,0.00,,CLR,0.09,VWS V14.01,2013-09-17 00:07:00,
2013-09-16 20:12:00,61.8,52.7,30.23,North,349,0.0,0.0,72,0.00,,CLR,0.09,VWS V14.01,2013-09-17 00:12:00,
2013-09-16 20:15:00,65.3,52.8,30.22,North,354,0.0,0.0,64,0.00,,CLR,0.09,VWS V14.01,2013-09-17 00:15:00,
2013-09-16 20:17:00,61.5,52.8,30.24,North,349,0.0,0.0,73,0.00,,CLR,0.09,VWS V14.01,2013-09-17 00:17:00,
2013-09-16 20:22:00,61.3,52.6,30.24,North,349,0.0,0.0,73,0.00,,CLR,0.09,VWS V14.01,2013-09-17 00:22:00,
2013-09-16 20:27:00,61.0,52.7,30.24,North,350,0.0,1.0,74,0.00,,CLR,0.09,VWS V14.01,2013-09-17 00:27:00,
2013-09-16 20:30:00,65.2,52.7,30.22,North,349,0.0,8.0,64,0.00,,CLR,0.09,VWS V14.01,2013-09-17 00:30:00,
2013-09-16 20:32:00,60.9,52.6,30.24,NNE,31,0.0,5.0,74,0.00,,CLR,0.09,VWS V14.01,2013-09-17 00:32:00,
2013-09-16 20:37:00,60.7,52.4,30.24,NNE,23,0.0,5.0,74,0.00,,CLR,0.09,VWS V14.01,2013-09-17 00:37:00,
2013-09-16 20:42:00,60.5,52.5,30.24,NNE,23,0.0,3.0,75,0.00,,CLR,0.09,VWS V14.01,2013-09-17 00:42:00,
2013-09-16 20:45:00,64.5,52.9,30.22,North,349,0.0,0.0,66,0.00,,CLR,0.09,VWS V14.01,2013-09-17 00:45:00,
2013-09-16 20:47:00,60.4,52.5,30.25,NNE,21,0.0,3.0,75,0.00,,CLR,0.09,VWS V14.01,2013-09-17 00:47:00,
2013-09-16 20:52:00,60.2,52.3,30.25,NNE,24,5.0,6.0,75,0.00,,CLR,0.09,VWS V14.01,2013-09-17 00:52:00,
2013-09-16 20:57:00,60.1,52.5,30.25,NNE,28,0.0,6.0,76,0.00,,CLR,0.09,VWS V14.01,2013-09-17 00:57:00,
2013-09-16 21:00:00,63.1,53.2,30.23,North,349,0.0,0.0,70,0.00,,CLR,0.09,VWS V14.01,2013-09-17 01:00:00,
2013-09-16 21:02:00,59.8,52.2,30.26,NNE,24,3.0,5.0,76,0.00,,CLR,0.09,VWS V14.01,2013-09-17 01:02:00,
2013-09-16 21:07:00,59.6,52.0,30.26,NNE,28,0.0,5.0,76,0.00,,CLR,0.09,VWS V14.01,2013-09-17 01:07:00,
2013-09-16 21:12:00,59.3,52.1,30.26,NE,35,0.0,4.0,77,0.00,,CLR,0.09,VWS V14.01,2013-09-17 01:12:00,
2013-09-16 21:15:00,61.6,52.5,30.24,North,349,0.0,0.0,72,0.00,,CLR,0.09,VWS V14.01,2013-09-17 01:15:00,
2013-09-16 21:17:00,59.2,52.0,30.26,NNE,24,0.0,6.0,77,0.00,,CLR,0.09,VWS V14.01,2013-09-17 01:17:00,
2013-09-16 21:22:00,59.0,52.2,30.26,NNE,18,0.0,4.0,78,0.00,,CLR,0.09,VWS V14.01,2013-09-17 01:22:00,
2013-09-16 21:27:00,58.9,52.1,30.26,NNE,27,0.0,5.0,78,0.00,,CLR,0.09,VWS V14.01,2013-09-17 01:27:00,
2013-09-16 21:30:00,60.9,52.6,30.24,North,7,0.0,2.0,74,0.00,,CLR,0.09,VWS V14.01,2013-09-17 01:30:00,
2013-09-16 21:32:00,58.6,52.1,30.27,NNE,14,0.0,5.0,79,0.00,,CLR,0.09,VWS V14.01,2013-09-17 01:32:00,
2013-09-16 21:37:00,58.4,51.9,30.27,North,3,1.0,3.0,79,0.00,,CLR,0.09,VWS V14.01,2013-09-17 01:37:00,
2013-09-16 21:42:00,58.3,51.8,30.27,North,6,0.0,6.0,79,0.00,,CLR,0.09,VWS V14.01,2013-09-17 01:42:00,
2013-09-16 21:45:00,60.5,52.5,30.25,NNE,23,0.0,0.0,75,0.00,,CLR,0.09,VWS V14.01,2013-09-17 01:45:00,
2013-09-16 21:47:00,58.0,51.9,30.27,North,11,0.0,6.0,80,0.00,,CLR,0.09,VWS V14.01,2013-09-17 01:47:00,
2013-09-16 21:52:00,57.8,51.7,30.27,North,11,0.0,0.0,80,0.00,,CLR,0.09,VWS V14.01,2013-09-17 01:52:00,
2013-09-16 21:57:00,57.5,51.7,30.27,North,0,0.0,4.0,81,0.00,,CLR,0.09,VWS V14.01,2013-09-17 01:57:00,
2013-09-16 22:00:00,59.9,52.3,30.26,NNE,27,1.0,5.0,76,0.00,,CLR,0.09,VWS V14.01,2013-09-17 02:00:00,
2013-09-16 22:02:00,57.3,51.5,30.28,NNE,14,2.0,4.0,81,0.00,,CLR,0.09,VWS V14.01,2013-09-17 02:02:00,
2013-09-16 22:07:00,57.0,51.2,30.28,NNE,17,0.0,5.0,81,0.00,,CLR,0.09,VWS V14.01,2013-09-17 02:07:00,
2013-09-16 22:12:00,56.9,51.5,30.28,NNE,30,0.0,6.0,82,0.00,,CLR,0.09,VWS V14.01,2013-09-17 02:12:00,
2013-09-16 22:15:00,59.3,52.1,30.26,NNE,25,1.0,6.0,77,0.00,,CLR,0.09,VWS V14.01,2013-09-17 02:15:00,
2013-09-16 22:17:00,56.7,51.3,30.28,NNE,13,0.0,6.0,82,0.00,,CLR,0.09,VWS V14.01,2013-09-17 02:17:00,
2013-09-16 22:22:00,56.6,51.5,30.28,NE,35,0.0,5.0,83,0.00,,CLR,0.09,VWS V14.01,2013-09-17 02:22:00,
2013-09-16 22:27:00,56.5,51.4,30.28,NNE,14,0.0,6.0,83,0.00,,CLR,0.09,VWS V14.01,2013-09-17 02:27:00,
2013-09-16 22:30:00,58.7,51.9,30.27,NNE,21,0.0,5.0,78,0.00,,CLR,0.09,VWS V14.01,2013-09-17 02:30:00,
2013-09-16 22:32:00,56.5,51.4,30.28,NNE,21,1.0,7.0,83,0.00,,CLR,0.09,VWS V14.01,2013-09-17 02:32:00,
2013-09-16 22:37:00,56.3,51.2,30.28,NNE,23,0.0,7.0,83,0.00,,CLR,0.09,VWS V14.01,2013-09-17 02:37:00,
2013-09-16 22:42:00,56.2,51.1,30.28,NNE,21,0.0,3.0,83,0.00,,CLR,0.09,VWS V14.01,2013-09-17 02:42:00,
2013-09-16 22:45:00,58.1,51.6,30.27,North,11,0.0,6.0,79,0.00,,CLR,0.09,VWS V14.01,2013-09-17 02:45:00,
2013-09-16 22:47:00,56.0,50.9,30.29,NE,34,0.0,3.0,83,0.00,,CLR,0.09,VWS V14.01,2013-09-17 02:47:00,
2013-09-16 22:52:00,55.9,50.8,30.29,ENE,66,0.0,2.0,83,0.00,,CLR,0.09,VWS V14.01,2013-09-17 02:52:00,
2013-09-16 22:57:00,55.7,50.6,30.29,NNE,16,0.0,5.0,83,0.00,,CLR,0.09,VWS V14.01,2013-09-17 02:57:00,
2013-09-16 23:00:00,57.5,51.7,30.28,NNE,27,0.0,4.0,81,0.00,,CLR,0.09,VWS V14.01,2013-09-17 03:00:00,
2013-09-16 23:02:00,55.6,50.8,30.29,NNE,17,0.0,5.0,84,0.00,,BKN048,0.09,VWS V14.01,2013-09-17 03:02:00,
2013-09-16 23:07:00,55.6,50.8,30.29,NE,51,0.0,6.0,84,0.00,,BKN048,0.09,VWS V14.01,2013-09-17 03:07:00,
2013-09-16 23:12:00,55.4,50.7,30.29,NE,44,3.0,6.0,84,0.00,,BKN048,0.09,VWS V14.01,2013-09-17 03:12:00,
2013-09-16 23:15:00,56.7,51.3,30.28,NNE,30,0.0,6.0,82,0.00,,CLR,0.09,VWS V14.01,2013-09-17 03:15:00,
2013-09-16 23:17:00,55.3,50.6,30.29,NNE,27,0.0,5.0,84,0.00,,BKN048,0.09,VWS V14.01,2013-09-17 03:17:00,
2013-09-16 23:22:00,55.1,50.4,30.29,NNE,31,0.0,5.0,84,0.00,,BKN048,0.09,VWS V14.01,2013-09-17 03:22:00,
2013-09-16 23:27:00,55.0,50.3,30.29,NNE,21,0.0,0.0,84,0.00,,BKN048,0.09,VWS V14.01,2013-09-17 03:27:00,
2013-09-16 23:30:00,56.5,51.4,30.28,NNE,27,0.0,6.0,83,0.00,,CLR,0.09,VWS V14.01,2013-09-17 03:30:00,
2013-09-16 23:32:00,54.8,50.4,30.29,North,6,0.0,5.0,85,0.00,,BKN048,0.09,VWS V14.01,2013-09-17 03:32:00,
2013-09-16 23:37:00,54.7,50.3,30.29,NNE,14,0.0,3.0,85,0.00,,BKN048,0.09,VWS V14.01,2013-09-17 03:37:00,
2013-09-16 23:42:00,54.5,50.1,30.29,North,1,5.0,7.0,85,0.00,,BKN048,0.09,VWS V14.01,2013-09-17 03:42:00,
2013-09-16 23:45:00,56.2,51.1,30.29,NE,37,0.0,3.0,83,0.00,,CLR,0.09,VWS V14.01,2013-09-17 03:45:00,
2013-09-16 23:47:00,54.4,50.3,30.30,NE,37,0.0,7.0,86,0.00,,BKN048,0.09,VWS V14.01,2013-09-17 03:47:00,
2013-09-16 23:52:00,54.2,50.1,30.30,North,10,0.0,6.0,86,0.00,,BKN048,0.09,VWS V14.01,2013-09-17 03:52:00,
2013-09-16 23:57:00,54.1,50.0,30.30,NNE,30,3.0,6.0,86,0.00,,BKN048,0.09,VWS V14.01,2013-09-17 03:57:00,